Regional Weather Roundup
Issued by NWS Bismarck, ND

Home | Current Version | Previous Version | Text Only | Print | Product List | Glossary On
Versions: 1 2 3 4 5 6 7 8 9 10 11 12 13 14 15 16 17 18 19 20 21 22 23 24 25 26 27 28 29 30 31 32 33 34 35 36 37 38 39 40 41 42 43 44 45 46 47 48 49 50
000
ASUS43 KBIS 061720
RWRBIS

NWR BROADCAST TEXT
NATIONAL WEATHER SERVICE BISMARCK ND
1100 AM CST FRI MAR 06 2015

NOTE: "FAIR" INDICATES FEW OR NO CLOUDS BELOW 12,000 FEET WITH NO
SIGNIFICANT WEATHER AND/OR OBSTRUCTIONS TO VISIBILITY.


CITY           SKY/WX    TMP DP  RH WIND       PRES   REMARKS
WILLISTON      CLOUDY    31  21  66 S6        30.03F
MINOT          PTSUNNY   29  16  58 S9        30.04F
MINOT AFB      PTSUNNY   28  21  75 SW12      30.03F WCI  18
BISMARCK       PTSUNNY   31  18  58 S3        30.13S
DICKINSON      CLOUDY    38  18  44 W9        30.04F
GARRISON         N/A     29  20  69 S6        30.07F
HETTINGER ARPT CLOUDY    42  17  36 W7        30.08F
JAMESTOWN      SUNNY     30  18  60 W9        30.09R
BEACH          CLOUDY    41  19  42 W20       30.06S
CARRINGTON     FAIR      28  19  69 MISG      30.08F
CROSBY         FAIR      30  23  74 S16       29.99F WCI  19
HARVEY         FAIR      27  19  74 W13       30.08S WCI  16
HAZEN          FAIR      34  18  51 SW9       30.10F
LINTON         FAIR      32  19  59 NW8       30.13S
MANDAN         CLOUDY    32  16  51 SW6       30.12S
OAKES            N/A     28  18  64 W12       30.11S WCI  18
RUGBY          FAIR      23  18  80 SW8       30.05F WCI  14
TIOGA          FAIR      30  21  69 SW6       30.03F
WATFORD CITY   FAIR      32  23  69 SW7       30.03S
$$

CITY           SKY/WX    TMP DP  RH WIND       PRES   REMARKS
GRAND FORKS    MOSUNNY   30  14  51 NW5       30.08R
GRAND FORKS AF SUNNY     31  14  49 W8        30.07S
DEVILS LAKE    MOSUNNY   25  18  74 W9        30.06S WCI  15
FARGO          SUNNY     30  16  56 NW12      30.10R
CANDO          FAIR      25  16  68 W10       30.04F WCI  15
CAVALIER       FAIR      27  16  63 W13       30.04S WCI  16
GWINNER        SUNNY     32  18  55 NW12      30.11S
ROLLA          FAIR      28  18  64 SW15      30.00F WCI  17
WALHALLA         N/A     27  14  59 SW8       30.03F WCI  18
$$

CITY           SKY/WX    TMP DP  RH WIND       PRES   REMARKS
ABERDEEN       SUNNY     32  17  54 NW10      30.15R
MOBRIDGE       PTSUNNY   34  18  52 W3        30.11R
BUFFALO          N/A     48  18  30 W20       30.03S
RAPID CITY     MOSUNNY   50  20  30 VRB3      30.13F
GLASGOW        SUNNY     42  23  46 W8        30.03F
SIDNEY         PTSUNNY   39  21  48 S15       30.05F
WOLF POINT     MOSUNNY   42  24  49 W13       30.02F
GLENDIVE       MOSUNNY   48  21  34 SW13      30.06F
MILES CITY     SUNNY     49  19  30 MISG      30.10S
BAKER          MOSUNNY   45  19  35 W17       30.08F
$$

CITY           SKY/WX    TMP DP  RH WIND       PRES   REMARKS
BILLINGS       MOSUNNY   54  15  21 W23G35    30.18S
GREAT FALLS    PTSUNNY   51  19  28 SW25      30.15R
REGINA         CLOUDY    27  23  86 S10       29.91F WCI  17
ESTEVAN        CLOUDY    28  19  69 SW15      29.98F WCI  17
$$



USA.gov is the U.S. government's official web portal to all federal, state and local government web resources and services.